This is the latest recevied weather packets stored in our database for station/object VK2HIM-1. If no packets are shown the sender has not sent any weather packets the latest 10 day(s).
| Time | Temp. | Humidity | Pressure | Rain* | Wind** | Luminosity | Snow |
|---|---|---|---|---|---|---|---|
| 1777128578 | 18.33° C | 82% | 1025.8 hPa | 0 mm | - | - | - |
| 1777126778 | 18.89° C | 81% | 1026 hPa | 0 mm | - | - | - |
| 1777124978 | 18.89° C | 81% | 1026.3 hPa | 0 mm | - | - | - |
| 1777123178 | 19.44° C | 81% | 1026.6 hPa | 0 mm | - | - | - |
| 1777121378 | 19.44° C | 81% | 1026.6 hPa | 0 mm | - | - | - |
| 1777119577 | 19.44° C | 82% | 1026.8 hPa | 0 mm | - | - | - |
| 1777117777 | 19.44° C | 79% | 1027 hPa | 0 mm | - | - | - |
| 1777115977 | 19.44° C | 79% | 1027 hPa | 0 mm | - | - | - |
| 1777114177 | 19.44° C | 81% | 1026.8 hPa | 0 mm | - | - | - |
| 1777112376 | 19.44° C | 82% | 1026.9 hPa | 0 mm | - | - | - |
| 1777110576 | 20° C | 83% | 1026.9 hPa | 0 mm | - | - | - |
| 1777108776 | 20° C | 82% | 1026.8 hPa | 0 mm | - | - | - |
| 1777106980 | 20° C | 80% | 1026.7 hPa | 0 mm | - | - | - |
| 1777105180 | 20.56° C | 79% | 1026.6 hPa | 0 mm | - | - | - |
| 1777103380 | 20.56° C | 78% | 1026.4 hPa | 0 mm | - | - | - |
| 1777101580 | 21.11° C | 76% | 1026.2 hPa | 0 mm | - | - | - |
| 1777099780 | 22.22° C | 76% | 1026.1 hPa | 0 mm | - | - | - |
| 1777097980 | 22.78° C | 77% | 1026.1 hPa | 0 mm | - | - | - |
| 1777096179 | 22.78° C | 75% | 1026.3 hPa | 0 mm | - | - | - |
| 1777094379 | 23.33° C | 75% | 1026.6 hPa | 0 mm | - | - | - |
| 1777092579 | 23.89° C | 74% | 1026.8 hPa | 0 mm | - | - | - |
| 1777090781 | 23.89° C | 76% | 1027 hPa | 0 mm | - | - | - |
| 1777088981 | 23.89° C | 75% | 1027.2 hPa | 0 mm | - | - | - |
* Rain latest hour (hover to see other rain measurements)
** Current wind speed in m/s (hover to see current wind gust speed)